Location: Maynard F. Jordan Observatory
(44.9000°N, 68.6700°W)
Time: 01:25:38
(UTC-04:00)

Daily predictions for brighter satellites

Satellite Brightness Start Highest point End
(mag) Time Altitude Azimuth Time Altitude Azimuth Time Altitude Azimuth
Terra 4.4 00:05:46 12° W 00:05:46 12° W 00:06:54 10° WNW
NOSS 3-1 (A) 3.6 00:10:33 69° NNW 00:10:33 69° NNW 00:16:53 10° NE
ATLAS 2AS CENTAUR R/B 3.7 00:13:04 39° E 00:13:04 39° E 00:19:19 10° NE
Cosmos 2369 Rocket 4.1 00:09:15 10° N 00:13:28 21° NE 00:15:10 19° ENE
ATLAS CENTAUR R/B 4.1 00:24:18 13° NE 00:24:18 13° NE 00:24:50 10° NE
Cosmos 2285 Rocket 4.1 00:25:41 73° N 00:25:41 73° N 00:31:30 10° NNE
Cosmos 2074 Rocket 4.1 00:20:49 10° N 00:26:20 68° NNE 00:26:20 68° NNE
SL-16 R/B 2.8 00:33:20 54° NNE 00:33:20 54° NNE 00:37:41 10° NNE
Cosmos 1943 Rocket 4.4 00:36:23 10° N 00:40:25 19° NE 00:43:37 13° E
Cosmos 841 Rocket 4.4 00:42:10 44° NNE 00:42:10 44° NNE 00:45:42 10° NNE
CZ-4C R/B 3.7 00:39:39 10° NW 00:44:55 38° W 00:44:55 38° W
Cosmos 2333 Rocket 3.8 00:46:51 25° WNW 00:48:04 27° NW 00:52:55 10° N
ATLAS 3B R/B 2.8 00:43:52 10° NNW 00:50:42 64° NE 00:51:14 62° ENE
Cosmos 1607 4.1 00:49:47 10° NNW 00:55:54 71° NNE 00:55:54 71° NNE
Cosmos 2237 Rocket 3.6 00:56:36 28° WNW 00:57:16 29° NW 01:02:12 10° N
Cosmos 2278 Rocket 4.4 00:54:36 10° WNW 00:56:09 14° WNW 00:56:09 14° WNW
USA 238 DEB 4.1 00:55:41 10° NNW 01:02:41 60° NE 01:04:41 45° E
USA 238 4.1 00:55:47 10° NNW 01:02:47 59° NE 01:04:50 44° E
Meteor 2-4 Rocket 4.3 01:10:14 50° NE 01:10:14 50° NE 01:14:25 10° NNE
Cosmos 2181 Rocket 4.5 01:13:33 51° E 01:13:34 51° E 01:19:47 10° NNE
CZ-2C R/B 4.0 01:13:01 10° N 01:17:28 30° WNW 01:17:28 30° WNW
USA 215 3.2 01:15:12 10° NE 01:21:27 76° ESE 01:21:27 76° ESE
Cosmos 1943 3.9 01:30:53 45° E 01:30:53 45° E 01:35:28 10° NE
Nadezhda 1 Rocket 4.4 01:32:48 52° WNW 01:32:48 52° WNW 01:38:30 10° N
SL-8 Rocket 4.1 01:30:21 10° N 01:36:29 63° E 01:36:48 62° E
Cosmos 1603 4.0 01:50:08 60° NW 01:50:08 60° NW 01:55:31 10° NNE
Cosmos 1295 Rocket 4.4 01:48:51 10° NNW 01:54:36 71° WNW 01:54:36 71° WNW
USA 267 3.3 01:48:35 10° ESE 01:55:06 74° NE 02:01:38 10° NW
Cosmos 2341 Rocket 4.2 01:50:45 10° NNW 01:56:23 57° WNW 01:56:23 57° WNW
Cosmos 2369 Rocket 2.5 01:52:29 10° NNW 01:56:56 55° NW 01:56:56 55° NW
PSLV R/B 4.5 01:54:26 10° N 01:57:58 49° N 01:57:58 49° N
NPP 4.3 01:54:13 10° NNE 01:59:24 46° E 01:59:31 45° ESE
ATLAS CENTAUR R/B 3.5 02:00:34 21° NNW 02:00:34 21° NNW 02:03:14 10° N
Meteor 1-23 Rocket 4.5 02:01:28 59° NW 02:01:28 59° NW 02:06:33 10° N
NOSS 3-4 (A) 4.4 02:01:44 35° ESE 02:02:07 35° ESE 02:07:54 10° NE
NOSS 3-4 (C) 4.4 02:01:49 35° ESE 02:02:14 35° ESE 02:08:00 10° NE
ATLAS 2AS CENTAUR R/B 3.4 02:00:28 44° W 02:02:46 59° NW 02:10:49 10° NE
Resurs 1-4 Rocket 3.6 02:11:05 10° NE 02:15:33 27° E 02:16:57 24° ESE
NOSS 3-2 (A) 4.0 02:08:54 10° NW 02:16:23 83° NE 02:24:30 10° SE
Cosmos 773 Rocket 4.1 02:16:55 69° E 02:16:55 69° E 02:21:57 10° NNE
SL-16 R/B 4.2 02:15:11 16° WNW 02:16:54 18° NW 02:20:46 10° N
CZ-2D R/B 3.5 02:14:08 10° NE 02:18:44 29° E 02:20:12 25° ESE
Cosmos 2228 3.9 02:16:29 10° NNW 02:19:37 45° NNW 02:19:37 45° NNW
Cosmos 1959 Rocket 4.4 02:16:43 10° NNW 02:22:56 71° W 02:23:23 68° SW
SL-08 R/B 4.3 02:16:46 10° N 02:23:06 79° W 02:23:47 70° SSW
Helios 1A Rocket 4.4 02:20:53 10° N 02:23:26 31° NNW 02:23:26 31° NNW
Cosmos 1943 Rocket 2.0 02:19:13 10° NNW 02:24:55 84° WSW 02:25:05 82° SSW
BREEZE M DEB (TANK) 4.3 02:07:21 10° WNW 02:28:09 59° SW 02:30:17 45° S
Cosmos 292 Rocket 3.8 02:29:11 79° NNE 02:29:11 79° NNE 02:33:46 10° NNE
Cosmos 1066 Rocket 4.1 02:28:32 68° SE 02:29:00 72° E 02:34:20 10° NNE
Cosmos 1809 Rocket 4.3 02:26:27 10° NNW 02:32:33 71° W 02:33:11 66° SW
Cosmos 44 Rocket 3.5 02:31:14 10° NW 02:35:03 58° NW 02:35:03 58° NW
AQUA 3.7 02:32:20 10° NNE 02:37:08 80° ESE 02:37:13 79° ESE
ATLAS 3B R/B 4.0 02:35:19 10° NW 02:38:27 22° WNW 02:38:27 22° WNW
Cosmos 1812 Rocket 3.6 02:41:14 10° N 02:45:39 71° E 02:45:53 69° ESE
ADEOS 4.2 02:41:09 10° NNE 02:46:13 49° E 02:47:46 37° SSE
Meteor 1-4 Rocket 3.1 02:45:27 10° N 02:48:54 59° NE 02:48:54 59° NE
CBERS-1 3.9 02:47:18 10° N 02:52:24 69° WNW 02:52:55 64° WSW
SL-16 R/B 2.5 02:49:25 32° SSE 02:52:30 86° ENE 02:58:43 10° NNW
Aureole 1 Rocket 3.4 02:52:29 58° S 02:53:26 76° ESE 02:57:55 10° NNE
IRS-1C 4.0 02:49:03 10° NNE 02:54:26 85° WNW 02:55:27 60° SSW
Cosmos 1680 Rocket 3.5 02:53:52 56° S 02:54:54 74° ESE 03:00:10 10° NNE
Cosmos 1821 Rocket 4.3 02:51:29 10° N 02:57:33 64° E 03:02:03 19° SSE
USA 161 4.3 02:57:08 14° ESE 02:58:33 18° ENE 03:00:38 10° NNE
Meteor 1-21 4.4 02:59:39 39° SSE 03:01:42 69° E 03:07:16 10° NNE
IRS-1D 3.7 02:57:14 10° NNE 03:02:26 72° ESE 03:04:06 44° S
USA 215 4.1 02:58:24 10° NE 03:04:31 44° NNW 03:08:48 20° W
Cosmos 2239 Rocket 4.5 03:03:02 10° N 03:09:15 80° E 03:13:32 21° SSE
Meteor 2-8 Rocket 4.4 03:07:07 35° S 03:09:52 81° E 03:16:03 10° N
Cosmos 1656 Rocket 3.4 03:06:05 10° NNW 03:11:30 78° WSW 03:14:45 25° SSE
GEOS 3 Rocket 3.6 03:06:34 10° NE 03:11:53 84° NW 03:13:30 47° SW
Cosmos 1943 4.4 03:12:41 26° W 03:14:19 29° NW 03:19:14 10° N
Cosmos 1535 Rocket 4.5 03:08:28 10° N 03:14:46 82° E 03:19:26 19° S
Cosmos 1626 Rocket 4.0 03:15:42 44° W 03:15:46 44° WNW 03:20:00 10° N
Lacrosse 5 rocket 3.5 03:14:44 18° SSE 03:16:15 21° ESE 03:19:43 10° ENE
UNK 3.7 03:16:45 55° SW 03:17:19 61° W 03:21:52 10° NNW
ARIANE 5 R/B 2.5 03:12:28 10° NNE 03:17:45 90° WNW 03:19:42 40° SSW
COSMOS 2455 2.7 03:13:13 10° NW 03:19:14 74° WSW 03:25:12 10° SSE
SL-27 R/B 3.3 03:19:08 39° SE 03:19:44 44° ESE 03:23:11 10° NNE
Genesis I 3.0 03:19:23 10° NW 03:23:21 80° SW 03:25:23 27° SSE
Cosmos 1934 Rocket 4.1 03:17:13 10° N 03:23:31 79° E 03:29:51 10° SSE
Cosmos 1371 Rocket 4.0 03:18:31 10° NNW 03:23:56 88° ENE 03:29:18 10° SSE
NOSS 3-2 (C) 4.0 03:17:37 10° NW 03:24:56 55° WSW 03:32:49 10° SSE
ADEOS II 4.4 03:21:34 10° NE 03:25:21 20° E 03:29:05 10° SE
Cosmos 1825 Rocket 3.6 03:24:03 39° S 03:25:40 77° E 03:30:05 10° NNE
Cosmos 923 Rocket 4.5 03:25:59 37° WSW 03:27:30 47° WNW 03:32:41 10° N
CZ-2D R/B 4.1 03:23:30 10° NNE 03:27:32 50° E 03:29:27 27° SSE
Okean O Rocket 4.1 03:25:15 10° NE 03:28:18 18° E 03:31:19 10° SE
RESURS DK-1 2.3 03:28:13 54° SSW 03:29:08 88° ESE 03:33:17 10° NNE
Cosmos 44 4.4 03:29:11 10° NW 03:31:14 23° WNW 03:31:14 23° WNW
Cosmos 1805 3.1 03:29:56 10° NNW 03:33:51 70° W 03:34:50 47° SSW
Cosmos 1271 Rocket 2.5 03:34:21 10° NNW 03:38:08 82° W 03:39:35 35° S
USA 267 3.7 03:32:32 10° SSE 03:38:26 36° SW 03:44:22 10° WNW
CENTAUR R/B 3.2 03:35:23 10° NW 03:43:14 83° NE 03:51:41 10° SE
COBE Rocket 4.0 03:40:08 10° N 03:45:12 63° WNW 03:47:37 30° SW
Cosmos 192 4.4 03:44:36 33° SW 03:46:42 64° WNW 03:51:37 10° NNE
Cosmos 1842 3.8 03:47:25 37° WSW 03:48:05 40° WNW 03:51:47 10° N
ADEOS Rocket 3.2 03:42:30 10° N 03:48:16 57° WNW 03:52:01 24° SW
Tiangong 1 1.0 03:50:41 54° SSE 03:50:41 54° SSE 03:53:21 10° ESE
NOSS 3-4 (A) 4.0 03:49:10 24° WSW 03:52:49 51° NW 03:59:13 10° NNE
NOSS 3-4 (C) 4.0 03:49:15 24° WSW 03:52:54 52° NW 03:59:20 10° NNE
NOSS 2-2 (D) 4.1 03:51:47 24° S 03:54:01 51° ESE 03:58:31 10° NE
Resurs 1-4 Rocket 2.6 03:50:36 10° N 03:55:31 42° WNW 03:58:03 25° WSW
CZ-2D R/B 2.7 03:53:57 10° N 03:58:54 40° WNW 04:01:33 24° WSW
Cosmos 2098 Rocket 2.2 03:56:10 10° N 03:59:17 71° E 04:01:42 14° SSE
Cosmos 1544 4.0 03:56:46 10° NNW 04:00:02 29° W 04:00:19 29° W
Abrixas 2.9 03:59:32 33° WNW 04:00:26 50° NNW 04:03:12 10° ENE
COSMOS 2406 3.5 03:57:45 25° SW 04:01:06 57° WNW 04:06:47 10° NNE
Cosmos 2082 Rocket 4.2 03:56:54 10° SSE 04:01:28 25° ESE 04:06:04 10° NE
MOZ.5/SAFIR/RUBIN 5/SL-8 3.9 03:59:03 15° S 04:02:41 52° W 04:07:16 10° NNW
CZ-4B R/B 4.5 04:01:59 10° NNE 04:07:01 38° E 04:11:57 10° SSE
Cosmos 1943 Rocket 4.1 04:05:36 10° WNW 04:06:33 11° W 04:06:33 11° W
Cosmos 1953 2.9 04:06:22 10° NNW 04:10:02 36° W 04:12:00 22° SW
Cosmos 389 Rocket 2.4 04:07:57 10° NNW 04:11:38 82° W 04:15:14 10° S
NOSS 2-2 (C) 3.6 04:09:36 21° SSW 04:12:18 78° SE 04:17:02 10° NE
Meteor 1-16 Rocket 4.4 04:11:22 10° N 04:16:49 70° ENE 04:22:06 10° SSE
Cosmos 1624 Rocket 4.4 04:12:33 10° NW 04:17:22 39° WSW 04:22:11 10° S
Cosmos 1758 Rocket 4.0 04:15:53 20° SW 04:18:31 41° WNW 04:22:40 10° N
Cosmos 1707 2.7 04:15:03 11° S 04:18:49 89° E 04:22:43 10° N
Cosmos 1470 2.8 04:15:21 10° NNW 04:19:10 55° W 04:22:59 10° S
Landsat 4 3.9 04:19:20 10° S 04:22:56 48° W 04:26:35 10° NNW
Cosmos 1727 Rocket 3.9 04:17:32 10° SSW 04:23:43 75° W 04:29:54 10° N
Cosmos-2242 3.2 04:20:50 10° NNW 04:25:09 54° W 04:29:25 10° S
PSLV R/B 4.3 04:22:35 10° NNE 04:26:53 53° E 04:31:08 10° S
USA 161 2.9 04:27:46 20° WSW 04:28:17 21° W 04:30:35 10° NW
UNKNOWN OBJECT B 4.0 04:25:49 10° N 04:29:11 27° WNW 04:31:33 16° WSW
Cosmos 1153 Rocket 4.4 04:24:04 10° NNW 04:30:10 69° W 04:36:14 10° S
Cosmos 2056 Rocket 4.2 04:25:35 10° NW 04:30:19 33° W 04:34:58 10° SSW
DNEPR-1 R/B 3.4 04:30:27 10° NW 04:34:40 74° WSW 04:39:05 10° SSE
Cosmos 921 Rocket 3.9 04:32:08 10° NW 04:36:01 29° W 04:39:54 10° SSW
SL-16 R/B 4.0 04:34:30 13° WSW 04:36:53 16° W 04:40:31 10° NW
Meteor 1-24 Rocket 4.2 04:33:25 10° S 04:38:45 63° E 04:44:19 10° NNE
Cosmos 2221 3.9 04:40:21 10° N 04:44:27 42° ENE 04:48:31 10° SSE
Cosmos 1802 Rocket 4.3 04:38:24 10° N 04:44:52 80° E 04:51:17 10° S
MOS 1 Rocket 3.9 04:41:08 10° N 04:45:01 34° WNW 04:49:00 10° SW
PSLV R/B 4.1 04:41:38 10° N 04:45:39 57° WNW 04:49:41 10° SSW
CZ-4B R/B 3.0 04:42:31 10° N 04:46:44 72° WNW 04:51:07 10° SSW
EXPRESS MD2 2.9 04:44:39 10° WNW 04:49:35 80° SSW 04:52:19 10° ESE
Cosmos 1378 3.4 04:49:53 10° SSW 04:53:32 51° W 04:57:13 10° N
MTI 3.7 04:51:16 10° S 04:54:29 68° WSW 04:57:44 10° NNW
IRS-1C Rocket 4.1 04:49:22 10° NNE 04:54:39 81° WNW 04:59:55 10° SSW
Lacrosse 5 rocket 1.7 04:50:28 10° SW 04:55:09 73° NW 04:59:47 10° NE
ARIANE 5 R/B 4.5 04:53:24 10° NNW 04:56:06 14° WNW 04:58:49 10° W
CZ-4B DEB 4.2 04:55:45 10° N 05:01:16 74° WNW 05:06:43 10° SSW
Cosmos 1459 Rocket 4.0 04:55:24 10° NNW 05:01:29 67° W 05:07:38 10° S
Okean O Rocket 2.0 05:00:39 10° N 05:04:56 48° WNW 05:09:10 10° SW
ADEOS II 2.2 05:00:17 10° N 05:05:27 58° WNW 05:10:35 10° SSW
Cosmos 1452 Rocket 4.0 05:00:48 10° NW 05:05:37 38° WSW 05:10:26 10° S
IRAS Rocket 4.4 05:01:43 10° NNE 05:07:24 86° ESE 05:13:02 10° SSW
